Location: Lake Lucerne
(45.5315°N, 88.8489°W)
Time: 11:24:26
(UTC-06:00)

Envisat - Visible Passes

Search period start: 17 January 2019 00:00
Search period end: 27 January 2019 00:00
Orbit: 764 x 766 km, 98.2° (Epoch: 17 January)

Date Brightness Start Highest point End Pass type
(mag) Time Alt. Az. Time Alt. Az. Time Alt. Az.
17 Jan 6.4 06:02:26 10° ENE 06:03:35 11° E 06:04:45 10° E visible
17 Jan 4.2 17:17:53 10° ESE 17:21:30 20° ENE 17:25:08 10° NNE visible
17 Jan 3.5 18:55:04 10° S 19:00:04 61° W 19:05:07 10° NNW visible
18 Jan 2.9 18:18:19 10° SSE 18:23:20 65° ENE 18:28:23 10° N visible
18 Jan 5.7 19:59:34 10° SW 20:02:49 17° W 20:06:05 10° NW visible
19 Jan 5.9 06:25:54 10° NE 06:29:29 19° E 06:33:02 10° SE visible
19 Jan 3.7 17:42:20 10° SE 17:46:47 32° ENE 17:51:15 10° N visible
19 Jan 4.5 19:21:06 10° SSW 19:25:44 35° W 19:30:24 10° NNW visible
20 Jan 3.1 18:43:47 10° S 18:48:51 76° WSW 18:53:57 10° NNW visible
21 Jan 5.1 06:50:43 10° NNE 06:55:16 32° E 06:59:46 10° SSE visible
21 Jan 3.1 18:07:15 10° SE 18:12:10 52° ENE 18:17:06 10° N visible
21 Jan 5.4 19:47:41 10° SW 19:51:29 21° W 19:55:20 10° NW visible
22 Jan 6.0 06:15:14 10° NE 06:18:09 15° E 06:21:02 10° ESE visible
22 Jan 3.9 17:31:31 10° ESE 17:35:41 26° ENE 17:39:51 10° N visible
22 Jan 4.1 19:09:38 10° S 19:14:28 44° W 19:19:20 10° NNW visible
23 Jan 2.9 18:32:34 10° SSE 18:37:39 87° ENE 18:42:45 10° NNW visible
23 Jan 6.0 20:15:21 10° WSW 20:17:21 12° W 20:19:22 10° WNW visible
24 Jan 5.5 06:39:45 10° NE 06:43:58 26° E 06:48:10 10° SSE visible
24 Jan 3.3 17:56:16 10° SE 18:01:00 42° ENE 18:05:48 10° N visible
24 Jan 5.1 19:35:57 10° SSW 19:40:11 26° W 19:44:26 10° NW visible
25 Jan 6.3 06:04:55 10° ENE 06:06:48 12° E 06:08:39 10° ESE visible
25 Jan 4.1 17:20:48 10° ESE 17:24:35 22° ENE 17:28:23 10° NNE visible
25 Jan 3.7 18:58:14 10° S 19:03:13 55° W 19:08:14 10° NNW visible
26 Jan 2.9 18:21:24 10° SSE 18:26:27 71° ENE 18:31:32 10° N visible
26 Jan 5.8 20:03:01 10° SW 20:06:00 16° W 20:09:00 10° NW visible
